Regional Weather Roundup
Issued by NWS

Home | Current Version | Previous Version | Graphics & Text | Print | Product List | Glossary On
Versions: 1 2 3 4 5 6 7 8 9 10 11 12 13 14 15 16 17 18 19 20 21 22 23 24 25 26 27 28 29 30 31 32 33 34 35 36 37 38 39 40 41 42 43 44 45 46 47 48 49 50
407
ASUS43 KOAX 220110
RWRNE

WEATHER ROUNDUP FOR NEBRASKA
NATIONAL WEATHER SERVICE OMAHA NE
700 PM CST SAT JAN 21 2017

NOTES: SATELLITE DATA IS BEING USED TO AUGMENT CLOUD COVER ABOVE
       12000 FEET.
       "FAIR" INDICATES FEW OR NO CLOUDS BELOW 12,000 FEET WITH NO
       SIGNIFICANT WEATHER AND/OR OBSTRUCTIONS TO VISIBILITY.

  * THESE STATIONS DO NOT REPORT WEATHER SUCH AS RAIN...SNOW OR FOG.

NEZ001>004-019>022-054>056-220200-
NEBRASKA PANHANDLE

CITY           SKY/WX    TMP DP  RH WIND       PRES   REMARKS
SCOTTSBLUFF    CLEAR     33  28  81 CALM      29.52R
ALLIANCE       CLOUDY    32  25  75 NE5       29.51R WCI  27
CHADRON        CLOUDY    28  25  88 CALM      29.53R
KIMBALL        CLOUDY    35  30  80 NW3       29.51R
SIDNEY         CLOUDY    28  23  81 CALM      29.51R
$$

NEZ057>060-069>072-079>082-220200-
SOUTHWEST NEBRASKA

CITY           SKY/WX    TMP DP  RH WIND       PRES   REMARKS
NORTH PLATTE   CLEAR     33  27  78 CALM      29.50R
IMPERIAL       CLOUDY    33  28  81 N9        29.51R WCI  25
LEXINGTON      CLEAR     37  32  82 CALM      29.49R
MCCOOK         CLOUDY    36  29  75 NW3       29.49R
OGALLALA       CLEAR     33  28  79 NW6       29.52R WCI  28
$$

NEZ005>010-023>029-035>040-094-220200-
NORTH CENTRAL NEBRASKA

CITY           SKY/WX    TMP DP  RH WIND       PRES   REMARKS
VALENTINE      CLEAR     27  24  89 W8        29.51R WCI  19
AINSWORTH      CLEAR     35  30  82 NW3       29.51R
BROKEN BOW     CLEAR     36  32  85 N5        29.49R WCI  32
O`NEILL        CLEAR     37  30  78 NW6       29.51R WCI  32
ORD            CLEAR     34  29  82 SW3       29.49R
THEDFORD       CLEAR     37  30  77 CALM      29.51R
$$

NEZ041-046>049-061>064-073>077-083>087-220200-
SOUTH CENTRAL NEBRASKA

CITY           SKY/WX    TMP DP  RH WIND       PRES   REMARKS
GRAND ISLAND   CLEAR     37  34  89 CALM      29.51R
AURORA         CLEAR     42  39  88 CALM      29.51R
HASTINGS       CLEAR     38  35  89 CALM      29.50R
HEBRON         CLEAR     37  35  89 CALM      29.51R
HOLDREGE       CLEAR     37  34  87 CALM      29.49R
KEARNEY *      CLEAR    N/A N/A N/A MISG        N/A
YORK           CLEAR     41  37  87 CALM      29.51R
$$

NEZ011>018-030>034-042>045-220200-
NORTHEAST NEBRASKA

CITY           SKY/WX    TMP DP  RH WIND       PRES   REMARKS
NORFOLK        CLEAR     41  32  70 CALM      29.49R
ALBION         CLEAR     35  29  79 CALM      29.50R
BLAIR          CLEAR     43  38  82 NW3       29.51R
FREMONT        CLEAR     39  38  97 CALM      29.51R
TEKAMAH        CLEAR     38  35  89 W5        29.51R WCI  34
WAYNE          CLEAR     34  33  97 CALM      29.51R
$$

NEZ050>053-065>068-078-088>093-220200-
SOUTHEAST NEBRASKA

CITY           SKY/WX    TMP DP  RH WIND       PRES   REMARKS
LINCOLN        CLEAR     38  34  85 CALM      29.53R
OMAHA EPPLEY   PTCLDY    40  33  76 CALM      29.51R
BEATRICE       CLEAR     40  38  92 NE5       29.51R
FALLS CITY     CLOUDY    47  39  74 E3        29.51R
NEBRASKA CITY  CLEAR     47  36  64 CALM      29.52R
PLATTSMOUTH    CLEAR     44  36  71 S3        29.52R
$$

NEZ044-045-051>053-067-220200-
OMAHA AREA

CITY           SKY/WX    TMP DP  RH WIND       PRES   REMARKS
OMAHA EPPLEY   PTCLDY    40  33  76 CALM      29.51R
BLAIR          CLEAR     43  38  82 NW3       29.51R
FREMONT        CLEAR     39  38  97 CALM      29.51R
MILLARD        CLEAR     40  37  89 CALM      29.52R
OFFUTT AFB     CLEAR     35  35 100 CALM      29.51R
PLATTSMOUTH    CLEAR     44  36  71 S3        29.52R
WAHOO          FAIR      41  37  84 SW5       29.52R
$$




USA.gov is the U.S. government's official web portal to all federal, state and local government web resources and services.